Weather History for Kenai, AK

Change the Weather History Date:

Friday, March 16, 2012

  Actual Average Record
Temperature  
Mean Temperature 20 °F -  
Max Temperature 28 °F 33 °F 46 °F (1970)
Min Temperature 3 °F 15 °F -28 °F (1961)
Degree Days  
Heating Degree Days 45    
Moisture  
Dew Point 18 °F    
Average Humidity 85    
Maximum Humidity 100    
Minimum Humidity 72    
Precipitation  
Precipitation 0.00 in - - ()
Sea Level Pressure  
Sea Level Pressure 29.28 in    
Wind  
Wind Speed 5 mph (WSW)    
Max Wind Speed 9 mph    
Max Gust Speed -    
Visibility 10 miles    
Events      
Averages and records for this station are not official NWS values.
T = Trace of Precipitation, MM = Missing Value Source: NWS Daily Summary

Daily Weather History Graph

Daily Weather History Graph

Search for Another Location

Airport:

Trip Planner

Search our weather history database for the weather conditions in past years. The results will help you decide how hot, cold, wet, or windy it might be!

Date:

Astronomy

Mar. 16, 2012 Rise Set
Actual Time 8:16 AM AKDT 8:11 PM AKDT
Civil Twilight 7:34 AM AKDT 8:53 PM AKDT
Nautical Twilight 6:44 AM AKDT 9:44 PM AKDT
Astronomical Twilight 5:50 AM AKDT 10:38 PM AKDT
Moon 6:09 AM AKDT (3/16) 1:18 PM AKDT (3/16)
Length of Visible Light 13h 19m
Length of Day
11h 55m
Waning Crescent, 31% of the Moon is Illuminated
Mar 16
Waning Crescent
Mar 22
New
Mar 30
First Quarter
Apr 6
Full
Apr 13
Last Quarter

Hourly Weather History & Observations

Time (AKDT) Temp. Windchill Dew Point Humidity Pressure Visibility Wind Dir Wind Speed Gust Speed Precip Events Conditions
12:53 AM 21.0 °F 16.2 °F 19.0 °F 92% 29.11 in 10.0 mi NW 3.5 mph - N/A   Clear
1:53 AM 17.1 °F 11.7 °F 15.1 °F 92% 29.13 in 10.0 mi SSE 3.5 mph - N/A   Clear
2:53 AM 19.0 °F 12.3 °F 16.0 °F 88% 29.14 in 10.0 mi SSE 4.6 mph - N/A   Scattered Clouds
3:53 AM 17.1 °F - 16.0 °F 96% 29.16 in 10.0 mi Calm Calm - N/A   Overcast
4:03 AM 17.6 °F - 17.6 °F 100% 29.15 in 10.0 mi Calm Calm - N/A   Overcast
4:53 AM 17.1 °F 10.0 °F 14.0 °F 88% 29.17 in 10.0 mi SSW 4.6 mph - N/A   Overcast
5:53 AM 25.0 °F 15.5 °F 23.0 °F 92% 29.18 in 10.0 mi SSW 9.2 mph - N/A   Overcast
6:53 AM 25.0 °F 16.3 °F 23.0 °F 92% 29.20 in 10.0 mi SW 8.1 mph - N/A   Overcast
7:29 AM 24.8 °F 16.1 °F 23.0 °F 93% 29.20 in 10.0 mi WSW 8.1 mph - N/A   Overcast
7:53 AM 25.0 °F 16.3 °F 23.0 °F 92% 29.21 in 10.0 mi SW 8.1 mph - N/A   Overcast
8:53 AM 25.0 °F 17.1 °F 21.9 °F 88% 29.24 in 10.0 mi SW 6.9 mph - N/A   Overcast
9:53 AM 24.1 °F 17.0 °F 19.9 °F 84% 29.26 in 10.0 mi WSW 5.8 mph - N/A   Overcast
10:53 AM 24.1 °F 17.0 °F 18.0 °F 77% 29.28 in 10.0 mi West 5.8 mph - N/A   Overcast
11:53 AM 25.0 °F 16.3 °F 19.0 °F 78% 29.30 in 10.0 mi SW 8.1 mph - N/A   Overcast
12:20 PM 24.8 °F 15.3 °F 19.4 °F 80% 29.30 in 10.0 mi WSW 9.2 mph - N/A   Mostly Cloudy
12:40 PM 26.6 °F 17.5 °F 19.4 °F 74% 29.30 in 10.0 mi WSW 9.2 mph - N/A   Scattered Clouds
12:53 PM 25.0 °F 18.1 °F 19.9 °F 81% 29.32 in 10.0 mi SW 5.8 mph - N/A   Partly Cloudy
1:23 PM 26.6 °F 19.1 °F 21.2 °F 80% 29.32 in 10.0 mi SSW 6.9 mph - N/A   Overcast
1:48 PM 26.6 °F 19.1 °F 21.2 °F 80% 29.32 in 10.0 mi SSW 6.9 mph - N/A   Overcast
1:53 PM 26.1 °F 18.4 °F 19.9 °F 78% 29.33 in 10.0 mi SSW 6.9 mph - N/A   Overcast
2:53 PM 27.0 °F 19.5 °F 19.9 °F 75% 29.34 in 10.0 mi WSW 6.9 mph - N/A   Scattered Clouds
3:53 PM 27.0 °F 21.6 °F 19.9 °F 75% 29.35 in 10.0 mi West 4.6 mph - N/A   Scattered Clouds
4:53 PM 28.0 °F 22.8 °F 19.9 °F 72% 29.36 in 10.0 mi West 4.6 mph - N/A   Clear
5:53 PM 27.0 °F 18.7 °F 19.9 °F 75% 29.36 in 10.0 mi West 8.1 mph - N/A   Clear
6:53 PM 26.1 °F 19.4 °F 19.9 °F 78% 29.36 in 10.0 mi WNW 5.8 mph - N/A   Clear
7:53 PM 23.0 °F 18.4 °F 19.0 °F 85% 29.37 in 10.0 mi NW 3.5 mph - N/A   Clear
8:53 PM 19.0 °F - 17.1 °F 92% 29.39 in 10.0 mi Calm Calm - N/A   Clear
9:53 PM 18.0 °F - 15.1 °F 88% 29.40 in 10.0 mi Calm Calm - N/A   Clear
10:53 PM 12.0 °F - 10.9 °F 95% 29.41 in 10.0 mi Calm Calm - N/A   Clear
11:53 PM 3.0 °F - 1.9 °F 95% 29.42 in 10.0 mi Calm Calm - N/A   Clear